Tracking 28915 objects as of 29-May-2024
HD Live streaming from Space Station
objects crossing your sky now

THOR ABLESTAR DEB

Track THOR ABLESTAR DEB now!
10-day predictions


NORAD ID: 410
Int'l Code: 1961-015EK
Perigee: 975.4 km
Apogee: 992.4 km
Inclination: 66.7 °
Period: 104.6 minutes
Semi major axis: 7354 km
RCS: 0.1102 m2 (medium)
Launch date: June 29, 1961
Source: United States (US)
Launch site: AIR FORCE EASTERN TEST RANGE (AFETR)

Note: This is SATELLITE DEBRIS
Your satellite tracking list
Your tracking list is empty




NASA's NSSDC Master Catalog

Two Line Element Set (TLE):
1   410U 61015EK  24150.04120341  .00000054  00000-0  13115-3 0  9998
2   410  66.6949  31.9919 0011562 171.8064 293.8299 13.76370252157451
Source of the keplerian elements: AFSPC